Terminal Aerodrome Forecast
Issued by NWS

Home | Current Version | Previous Version | Text Only | Print | Product List | Glossary On
Versions: 1 2 3 4 5 6 7 8 9 10 11 12 13 14 15 16 17 18 19 20 21 22 23 24 25 26 27 28 29 30 31 32 33 34
000
FTUS41 KALY 230019 AAD
TAFPSF
TAF AMD
KPSF 230019Z 2300/2324 02004KT P6SM BKN040
      TEMPO 2300/2304 BKN030
     FM231000 VRB03KT 6SM BR FEW002 SCT250
     FM231200 35004KT P6SM FEW250
     FM231600 33007KT P6SM FEW040 SCT250=

USA.gov is the U.S. government's official web portal to all federal, state and local government web resources and services.